Weather History for KLBT - April, 2013

Change the Weather History Date:

Monday, April 8, 2013

  Actual Average Record
Temperature  
Mean Temperature 62 °F 60 °F  
Max Temperature 78 °F 73 °F 89 °F (2001)
Min Temperature 46 °F 47 °F 22 °F (2007)
Degree Days  
Heating Degree Days 3 6  
Month to date heating degree days 88 56  
Since 1 July heating degree days 2698 2632  
Cooling Degree Days 0 1  
Month to date cooling degree days 0 8  
Year to date cooling degree days 5 21  
Growing Degree Days 12 (Base 50)    
Moisture  
Dew Point 53 °F    
Average Humidity 71    
Maximum Humidity 100    
Minimum Humidity 42    
Precipitation  
Precipitation 0.00 in 0.10 in 0.55 in (2003)
Month to date precipitation 1.13 0.86  
Year to date precipitation 8.58 10.06  
Sea Level Pressure  
Sea Level Pressure 30.15 in    
Wind  
Wind Speed 5 mph (SSW)    
Max Wind Speed 13 mph    
Max Gust Speed 17 mph    
Visibility 6 miles    
Events Fog    
T = Trace of Precipitation, MM = Missing Value Source: NWS Daily Summary

Daily Weather History Graph

Daily Weather History Graph

Search for Another Location

Airport or City:

Trip Planner

Search our weather history database for the weather conditions in past years. The results will help you decide how hot, cold, wet, or windy it might be!

Date:

Astronomy

Apr. 08, 2013 Rise Set
Actual Time 6:53 AM EDT 7:43 PM EDT
Civil Twilight 6:27 AM EDT 8:08 PM EDT
Nautical Twilight 5:57 AM EDT 8:38 PM EDT
Astronomical Twilight 5:26 AM EDT 9:10 PM EDT
Moon 5:38 AM EDT (4/8) 6:17 PM EDT (4/8)
Length of Visible Light 13h 40m
Length of Day
12h 49m
Waning Crescent, 3% of the Moon is Illuminated
Apr 8
Waning Crescent
Apr 10
New
Apr 18
First Quarter
Apr 25
Full
May 2
Last Quarter

Hourly Weather History & Observations

Time (EDT) Temp. Dew Point Humidity Pressure Visibility Wind Dir Wind Speed Gust Speed Precip Events Conditions
12:54 AM 57.0 °F 54.0 °F 89% 30.15 in 10.0 mi South 3.5 mph - N/A   Clear
1:54 AM 55.0 °F 53.1 °F 93% 30.14 in 10.0 mi Calm Calm - N/A   Clear
2:54 AM 53.1 °F 53.1 °F 100% 30.13 in 9.0 mi Calm Calm - N/A   Clear
3:54 AM 50.0 °F 50.0 °F 100% 30.13 in 1.5 mi Calm Calm - N/A   Clear
3:57 AM 48.2 °F 48.2 °F 100% 30.13 in 0.8 mi Calm Calm - N/A   Mist
4:12 AM 50.0 °F 50.0 °F 100% 30.13 in 0.2 mi Calm Calm - N/A Fog Fog
4:45 AM 48.2 °F 46.4 °F 93% 30.13 in 0.2 mi Calm Calm - N/A Fog Fog
4:54 AM 48.9 °F 48.0 °F 97% 30.13 in 0.2 mi Calm Calm - N/A Fog Fog
5:12 AM 48.2 °F 48.2 °F 100% 30.14 in 0.5 mi Calm Calm - N/A Fog Fog
5:54 AM 46.0 °F 46.0 °F 100% 30.14 in 0.2 mi Calm Calm - N/A Fog Fog
6:30 AM 48.2 °F 48.2 °F 100% 30.16 in 1.5 mi Calm Calm - N/A   Overcast
6:36 AM 48.2 °F 48.2 °F 100% 30.16 in 0.8 mi Calm Calm - N/A   Mist
6:54 AM 48.0 °F 48.0 °F 100% 30.17 in 0.2 mi Calm Calm - N/A Fog Fog
7:54 AM 50.0 °F 50.0 °F 100% 30.19 in 0.2 mi Calm Calm - N/A Fog Fog
8:34 AM 55.4 °F 55.4 °F 100% 30.20 in 1.2 mi Calm Calm - N/A   Mostly Cloudy
8:38 AM 55.4 °F 55.4 °F 100% 30.20 in 2.0 mi Calm Calm - N/A   Mostly Cloudy
8:47 AM 57.2 °F 57.2 °F 100% 30.20 in 4.0 mi Calm Calm - N/A   Scattered Clouds
8:54 AM 59.0 °F 57.9 °F 96% 30.20 in 6.0 mi Calm Calm - N/A   Partly Cloudy
9:54 AM 64.9 °F 57.9 °F 78% 30.20 in 10.0 mi SW 6.9 mph - N/A   Clear
10:54 AM 69.1 °F 57.9 °F 68% 30.20 in 10.0 mi WSW 5.8 mph - N/A   Clear
11:54 AM 72.0 °F 55.9 °F 57% 30.19 in 10.0 mi WSW 8.1 mph - N/A   Clear
12:54 PM 73.9 °F 55.0 °F 52% 30.17 in 10.0 mi SW 9.2 mph 16.1 mph N/A   Clear
1:54 PM 75.0 °F 57.9 °F 55% 30.14 in 10.0 mi West 8.1 mph - N/A   Clear
2:54 PM 77.0 °F 57.0 °F 50% 30.12 in 10.0 mi SSW 9.2 mph - N/A   Mostly Cloudy
3:54 PM 75.9 °F 55.9 °F 50% 30.10 in 10.0 mi WSW 6.9 mph - N/A   Mostly Cloudy
4:54 PM 78.1 °F 54.0 °F 43% 30.09 in 10.0 mi SSW 8.1 mph - N/A   Scattered Clouds
5:54 PM 75.9 °F 54.0 °F 46% 30.09 in 10.0 mi WSW 11.5 mph - N/A   Clear
6:54 PM 73.9 °F 57.0 °F 55% 30.09 in 10.0 mi Variable 3.5 mph - N/A   Clear
7:54 PM 70.0 °F 54.0 °F 57% 30.11 in 10.0 mi SSE 8.1 mph - N/A   Clear
8:54 PM 66.0 °F 54.0 °F 65% 30.12 in 10.0 mi South 5.8 mph - N/A   Clear
9:54 PM 64.0 °F 55.9 °F 75% 30.14 in 10.0 mi South 4.6 mph - N/A   Clear
10:54 PM 63.0 °F 55.9 °F 78% 30.15 in 10.0 mi Variable 3.5 mph - N/A   Clear
11:54 PM 61.0 °F 57.0 °F 87% 30.15 in 10.0 mi South 4.6 mph - N/A   Clear